EW1334 Weather Reports


Display with metric or nautical units.
time (UTC)temp
F
wind
direction
speed
MPH
gust
MPH
rain 1hr
in
rain 24hr
in
rain mn
in
humidity
%
barometer
mb
20181115213041 45 60 2.0 7.0 0.00 0.02 0.02 81 1034.2
20181115211535 45 61 1.0 6.0 0.00 0.02 0.02 82 1034.1
20181115210022 45 25 0.0 4.0 0.00 0.02 0.02 82 1034.0
20181115204530 45 64 0.0 5.0 0.00 0.02 0.02 81 1034.0
20181115203022 45 34 0.0 4.0 0.00 0.02 0.02 81 1033.9
20181115201536 46 57 1.0 4.0 0.00 0.02 0.02 81 1033.7
20181115200029 46 45 0.0 4.0 0.00 0.02 0.02 80 1033.6
20181115194543 46 46 1.0 5.0 0.00 0.02 0.02 80 1033.6
20181115193051 46 64 0.0 6.0 0.00 0.02 0.02 79 1033.6
20181115191522 46 39 1.0 6.0 0.00 0.02 0.02 78 1033.5
20181115190030 46 53 0.0 4.0 0.00 0.02 0.02 77 1033.4
20181115184511 46 58 1.0 6.0 0.00 0.02 0.02 78 1033.3
20181115183007 46 39 0.0 0.0 0.00 0.02 0.02 78 1033.2
20181115181510 47 46 0.0 0.0 0.00 0.02 0.02 79 1033.0
20181115180007 47 32 0.0 2.0 0.00 0.02 0.02 80 1033.0
20181115174505 47 46 0.0 1.0 0.00 0.02 0.02 81 1033.0
20181115173016 47 38 0.0 5.0 0.00 0.02 0.02 85 1032.9
20181115171510 47 48 0.0 4.0 0.00 0.02 0.02 89 1032.8
20181115164717 47 30 0.0 0.0 0.00 0.02 0.02 90 1032.6
20181115163157 47 16 0.0 0.0 0.00 0.02 0.02 90 1032.6
20181115161640 47 16 0.0 0.0 0.00 0.02 0.02 90 1032.5
20181115160336 47 17 0.0 2.0 0.00 0.02 0.02 89 1032.4
20181115154646 47 32 0.0 3.0 0.00 0.02 0.02 89 1032.3
20181115153206 48 32 0.0 0.0 0.00 0.02 0.02 88 1032.4
20181115151700 48 32 0.0 0.0 0.00 0.02 0.02 87 1032.5
20181115150129 48 19 0.0 1.0 0.00 0.02 0.02 87 1032.4
20181115144634 48 32 0.0 0.0 0.00 0.02 0.02 87 1032.3
20181115143156 49 19 0.0 6.0 0.00 0.02 0.02 86 1032.2
20181115141643 49 20 0.0 6.0 0.00 0.02 0.02 86 1032.1
20181115140158 49 39 0.0 6.0 0.00 0.02 0.02 86 1032.0
20181115134729 49 31 0.0 5.0 0.00 0.02 0.02 86 1031.9
20181115133136 49 21 2.0 4.0 0.00 0.02 0.02 86 1032.0
20181115131639 49 30 0.0 5.0 0.00 0.02 0.02 85 1031.9
20181115130100 49 28 1.0 6.0 0.00 0.02 0.02 85 1031.8
20181115124654 49 52 0.0 5.0 0.01 0.02 0.02 85 1031.8
20181115123113 49 13 1.0 5.0 0.01 0.02 0.02 84 1031.7
20181115121549 49 53 2.0 9.0 0.01 0.02 0.02 83 1031.6
20181115120154 49 51 4.0 10.0 0.01 0.02 0.02 83 1031.6
20181115114641 50 349 5.0 12.0 0.00 0.01 0.01 82 1031.5
20181115113158 50 360 3.0 10.0 0.00 0.01 0.01 81 1031.5
20181115111625 50 355 0.0 9.0 0.00 0.01 0.01 81 1031.5
20181115110122 50 5 1.0 5.0 0.00 0.01 0.01 82 1031.5
20181115104608 50 16 3.0 8.0 0.00 0.02 0.01 83 1031.6
20181115103115 49 325 4.0 8.0 0.00 0.02 0.01 83 1031.6
20181115101615 49 337 0.0 5.0 0.00 0.02 0.01 85 1031.4
20181115100052 49 325 0.0 5.0 0.00 0.02 0.01 85 1031.3
20181115094547 49 360 0.0 6.0 0.00 0.02 0.01 86 1031.2
20181115093125 48 29 0.0 5.0 0.00 0.02 0.01 89 1031.4
20181115091551 48 9 1.0 4.0 0.00 0.02 0.01 92 1031.4
20181115090026 47 346 2.0 7.0 0.00 0.02 0.01 97 1031.3
20181115084605 46 349 0.0 3.0 0.00 0.02 0.01 98 1031.3
20181115083019 46 13 0.0 3.0 0.00 0.02 0.01 98 1031.2
20181115081545 45 355 0.0 0.0 0.00 0.02 0.01 98 1031.2
20181115080028 45 355 0.0 0.0 0.00 0.02 0.01 98 1031.3
20181115074524 44 355 0.0 0.0 0.00 0.02 0.01 98 1031.0
20181115073034 44 355 0.0 0.0 0.00 0.02 0.01 98 1031.0
20181115071530 43 355 0.0 0.0 0.00 0.02 0.01 98 1030.9
20181115070058 43 355 0.0 0.0 0.00 0.02 0.01 98 1031.0
20181115064535 42 355 0.0 0.0 0.00 0.02 0.01 97 1030.9
20181115063012 42 355 0.0 1.0 0.00 0.02 0.01 97 1030.8
20181115061655 42 315 0.0 0.0 0.00 0.02 0.01 97 1030.6
20181115060142 42 306 0.0 0.0 0.00 0.02 0.01 97 1030.5
20181115054653 42 306 0.0 0.0 0.00 0.02 0.01 97 1030.3
20181115053210 42 306 0.0 0.0 0.00 0.02 0.01 97 1030.3
20181115051700 42 306 0.0 0.0 0.00 0.02 0.01 97 1030.3
20181115050145 42 306 0.0 0.0 0.00 0.02 0.01 97 1030.2
20181115044659 42 306 0.0 0.0 0.00 0.02 0.01 97 1030.0
20181115043125 42 306 0.0 0.0 0.00 0.02 0.01 97 1029.9
20181115041642 43 306 0.0 0.0 0.00 0.02 0.01 97 1029.8
20181115040109 43 306 0.0 0.0 0.00 0.02 0.01 97 1029.7
20181115034641 44 306 0.0 0.0 0.00 0.02 0.01 97 1029.8
20181115033130 44 306 0.0 0.0 0.00 0.02 0.01 97 1029.8
20181115031624 44 306 0.0 0.0 0.01 0.02 0.01 97 1029.6
20181115030114 44 306 0.0 0.0 0.01 0.02 0.01 97 1029.5
20181115024624 44 306 0.0 0.0 0.01 0.02 0.01 97 1029.4
20181115023130 44 306 0.0 0.0 0.01 0.02 0.01 96 1029.5
20181115021610 44 306 0.0 0.0 0.00 0.01 0.00 96 1029.3
20181115020048 44 306 0.0 0.0 0.00 0.01 0.00 96 1029.3
20181115014540 45 306 0.0 0.0 0.00 0.02 0.00 96 1029.2
20181115013111 45 306 0.0 0.0 0.00 0.02 0.00 96 1029.1
20181115011539 45 306 0.0 0.0 0.00 0.02 0.00 95 1029.1
20181115010057 45 306 0.0 0.0 0.00 0.02 0.00 95 1029.1
20181115004600 45 306 0.0 0.0 0.00 0.02 0.00 95 1029.0
20181115003038 46 306 0.0 0.0 0.00 0.02 0.00 95 1028.9
20181115001535 46 306 0.0 1.0 0.00 0.02 0.00 95 1028.8
20181115000026 46 307 0.0 0.0 0.00 0.02 0.00 95 1028.6
20181114234553 46 292 0.0 0.0 0.00 0.02 0.00 95 1028.6
20181114233025 46 290 0.0 3.0 0.00 0.02 0.00 95 1028.5
20181114231550 46 296 0.0 3.0 0.00 0.02 0.00 95 1028.5
20181114230029 46 295 0.0 2.0 0.00 0.02 0.02 95 1028.5
20181114224552 46 293 0.0 4.0 0.00 0.02 0.02 95 1028.4
20181114223024 46 280 0.0 3.0 0.00 0.02 0.02 95 1028.4
20181114221520 46 307 2.0 5.0 0.00 0.02 0.02 95 1028.5
20181114220039 46 298 0.0 5.0 0.00 0.02 0.02 95 1028.4
20181114214525 46 295 0.0 4.0 0.00 0.02 0.02 95 1028.3